Location: Eaton Estates
(41.3089°N, 82.0057°W)
Time: 08:05:18
(UTC+00:00)

USA 308 - Pass Details

Date: 29 October 2021
Orbit: 562 x 573 km, 54.0° (Epoch: 26 November)

Event Time Altitude Azimuth Distance (km) Brightness Sun altitude
Exits shadow 11:22:47 - 307° (NW) 2,160 5.3 -6.9°
Reaches altitude 10° 11:23:59 10° 319° (NW) 1,856 5.0 -6.7°
Maximum altitude 11:26:25 15° 354° (N) 1,567 5.0 -6.2°
Drops below altitude 10° 11:28:52 10° 30° (NNE) 1,858 5.8 -5.8°
Sets 11:32:00 0° 55° (NE) 2,755 7.1 -5.2°
